Year,Month,Day,Hour,Minute,Value (Times are PST for temperature in C)
2011,04,29,00,00,4.40
2011,04,29,00,01,4.40
2011,04,29,00,02,4.40
2011,04,29,00,03,4.40
2011,04,29,00,04,4.40
2011,04,29,00,05,4.50
2011,04,29,00,06,4.50
2011,04,29,00,07,4.50
2011,04,29,00,08,4.40
2011,04,29,00,09,4.40
2011,04,29,00,10,4.40
2011,04,29,00,11,4.30
2011,04,29,00,12,4.30
2011,04,29,00,13,4.30
2011,04,29,00,14,4.30
2011,04,29,00,15,4.30
2011,04,29,00,16,4.30
2011,04,29,00,17,4.30
2011,04,29,00,18,4.30
2011,04,29,00,19,4.30
2011,04,29,00,20,4.20
2011,04,29,00,21,4.20
2011,04,29,00,22,4.20
2011,04,29,00,23,4.20
2011,04,29,00,24,4.20
2011,04,29,00,25,4.20
2011,04,29,00,26,4.20
2011,04,29,00,27,4.10
2011,04,29,00,28,4.10
2011,04,29,00,29,4.10
2011,04,29,00,30,4.00
2011,04,29,00,31,4.00
2011,04,29,00,32,3.90
2011,04,29,00,33,3.90
2011,04,29,00,34,3.80
2011,04,29,00,35,3.80
2011,04,29,00,36,3.80
2011,04,29,00,37,3.80
2011,04,29,00,38,3.80
2011,04,29,00,39,3.80
2011,04,29,00,40,3.80
2011,04,29,00,41,3.70
2011,04,29,00,42,3.70
2011,04,29,00,43,3.70
2011,04,29,00,44,3.70
2011,04,29,00,45,3.70
2011,04,29,00,46,3.70
2011,04,29,00,47,3.70
2011,04,29,00,48,3.70
2011,04,29,00,49,3.70
2011,04,29,00,50,3.60
2011,04,29,00,51,3.60
2011,04,29,00,52,3.60
2011,04,29,00,53,3.60
2011,04,29,00,54,3.50
2011,04,29,00,55,3.50
2011,04,29,00,56,3.50
2011,04,29,00,57,3.50
2011,04,29,00,58,3.40
2011,04,29,00,59,3.40
2011,04,29,01,00,3.40
2011,04,29,01,01,3.30
2011,04,29,01,02,3.30
2011,04,29,01,03,3.30
2011,04,29,01,04,3.30
2011,04,29,01,05,3.30
2011,04,29,01,06,3.30
2011,04,29,01,07,3.20
2011,04,29,01,08,3.20
2011,04,29,01,09,3.20
2011,04,29,01,10,3.10
2011,04,29,01,11,3.10
2011,04,29,01,12,3.10
2011,04,29,01,13,3.10
2011,04,29,01,14,3.10
2011,04,29,01,15,3.00
2011,04,29,01,16,2.90
2011,04,29,01,17,2.90
2011,04,29,01,18,2.90
2011,04,29,01,19,2.80
2011,04,29,01,20,2.70
2011,04,29,01,21,2.60
2011,04,29,01,22,2.60
2011,04,29,01,23,2.50
2011,04,29,01,24,2.50
2011,04,29,01,25,2.40
2011,04,29,01,26,2.40
2011,04,29,01,27,2.40
2011,04,29,01,28,2.30
2011,04,29,01,29,2.30
2011,04,29,01,30,2.30
2011,04,29,01,31,2.30
2011,04,29,01,32,2.20
2011,04,29,01,33,2.20
2011,04,29,01,34,2.20
2011,04,29,01,35,2.20
2011,04,29,01,36,2.20
2011,04,29,01,37,2.20
2011,04,29,01,38,2.20
2011,04,29,01,39,2.20
2011,04,29,01,40,2.20
2011,04,29,01,41,2.20
2011,04,29,01,42,2.20
2011,04,29,01,43,2.20
2011,04,29,01,44,2.20
2011,04,29,01,45,2.20
2011,04,29,01,46,2.20
2011,04,29,01,47,2.20
2011,04,29,01,48,2.20
2011,04,29,01,49,2.20
2011,04,29,01,50,2.20
2011,04,29,01,51,2.20
2011,04,29,01,52,2.20
2011,04,29,01,53,2.20
2011,04,29,01,54,2.20
2011,04,29,01,55,2.20
2011,04,29,01,56,2.20
2011,04,29,01,57,2.30
2011,04,29,01,58,2.30
2011,04,29,01,59,2.30
2011,04,29,02,00,2.30
2011,04,29,02,01,2.40
2011,04,29,02,02,2.40
2011,04,29,02,03,2.40
2011,04,29,02,04,2.40
2011,04,29,02,05,2.40
2011,04,29,02,06,2.40
2011,04,29,02,07,2.40
2011,04,29,02,08,2.40
2011,04,29,02,09,2.40
2011,04,29,02,10,2.40
2011,04,29,02,11,2.50
2011,04,29,02,12,2.50
2011,04,29,02,13,2.50
2011,04,29,02,14,2.60
2011,04,29,02,15,2.60
2011,04,29,02,16,2.60
2011,04,29,02,17,2.70
2011,04,29,02,18,2.70
2011,04,29,02,19,2.70
2011,04,29,02,20,2.70
2011,04,29,02,21,2.70
2011,04,29,02,22,2.70
2011,04,29,02,23,2.70
2011,04,29,02,24,2.70
2011,04,29,02,25,2.70
2011,04,29,02,26,2.70
2011,04,29,02,27,2.70
2011,04,29,02,28,2.70
2011,04,29,02,29,2.60
2011,04,29,02,30,2.60
2011,04,29,02,31,2.50
2011,04,29,02,32,2.50
2011,04,29,02,33,2.50
2011,04,29,02,34,2.50
2011,04,29,02,35,2.50
2011,04,29,02,36,2.50
2011,04,29,02,37,2.50
2011,04,29,02,38,2.50
2011,04,29,02,39,2.40
2011,04,29,02,40,2.40
2011,04,29,02,41,2.40
2011,04,29,02,42,2.40
2011,04,29,02,43,2.40
2011,04,29,02,44,2.40
2011,04,29,02,45,2.40
2011,04,29,02,46,2.40
2011,04,29,02,47,2.40
2011,04,29,02,48,2.40
2011,04,29,02,49,2.40
2011,04,29,02,50,2.40
2011,04,29,02,51,2.40
2011,04,29,02,52,2.40
2011,04,29,02,53,2.30
2011,04,29,02,54,2.30
2011,04,29,02,55,2.30
2011,04,29,02,56,2.30
2011,04,29,02,57,2.20
2011,04,29,02,58,2.20
2011,04,29,02,59,2.20
2011,04,29,03,00,2.20
2011,04,29,03,01,2.20
2011,04,29,03,02,2.20
2011,04,29,03,03,2.20
2011,04,29,03,04,2.20
2011,04,29,03,05,2.20
2011,04,29,03,06,2.20
2011,04,29,03,07,2.20
2011,04,29,03,08,2.20
2011,04,29,03,09,2.20
2011,04,29,03,10,2.20
2011,04,29,03,11,2.20
2011,04,29,03,12,2.20
2011,04,29,03,13,2.20
2011,04,29,03,14,2.20
2011,04,29,03,15,2.20
2011,04,29,03,16,2.20
2011,04,29,03,17,2.20
2011,04,29,03,18,2.20
2011,04,29,03,19,2.20
2011,04,29,03,20,2.20
2011,04,29,03,21,2.20
2011,04,29,03,22,2.20
2011,04,29,03,23,2.20
2011,04,29,03,24,2.20
2011,04,29,03,25,2.20
2011,04,29,03,26,2.20
2011,04,29,03,27,2.20
2011,04,29,03,28,2.20
2011,04,29,03,29,2.20
2011,04,29,03,30,2.20
2011,04,29,03,31,2.20
2011,04,29,03,32,2.20
2011,04,29,03,33,2.20
2011,04,29,03,34,2.20
2011,04,29,03,35,2.20
2011,04,29,03,36,2.20
2011,04,29,03,37,2.10
2011,04,29,03,38,2.10
2011,04,29,03,39,2.10
2011,04,29,03,40,2.10
2011,04,29,03,41,2.00
2011,04,29,03,42,2.00
2011,04,29,03,43,2.00
2011,04,29,03,44,2.00
2011,04,29,03,45,2.00
2011,04,29,03,46,2.00
2011,04,29,03,47,2.00
2011,04,29,03,48,2.00
2011,04,29,03,49,2.00
2011,04,29,03,50,1.90
2011,04,29,03,51,1.90
2011,04,29,03,52,1.90
2011,04,29,03,53,1.90
2011,04,29,03,54,1.90
2011,04,29,03,55,1.80
2011,04,29,03,56,1.80
2011,04,29,03,57,1.80
2011,04,29,03,58,1.80
2011,04,29,03,59,1.80
2011,04,29,04,00,1.80
2011,04,29,04,01,1.80
2011,04,29,04,02,1.80
2011,04,29,04,03,1.80
2011,04,29,04,04,1.80
2011,04,29,04,05,1.80
2011,04,29,04,06,1.80
2011,04,29,04,07,1.70
2011,04,29,04,08,1.70
2011,04,29,04,09,1.70
2011,04,29,04,10,1.60
2011,04,29,04,11,1.60
2011,04,29,04,12,1.60
2011,04,29,04,13,1.60
2011,04,29,04,14,1.60
2011,04,29,04,15,1.70
2011,04,29,04,16,1.70
2011,04,29,04,17,1.70
2011,04,29,04,18,1.70
2011,04,29,04,19,1.70
2011,04,29,04,20,1.60
2011,04,29,04,21,1.60
2011,04,29,04,22,1.60
2011,04,29,04,23,1.60
2011,04,29,04,24,1.60
2011,04,29,04,25,1.60
2011,04,29,04,26,1.50
2011,04,29,04,27,1.50
2011,04,29,04,28,1.50
2011,04,29,04,29,1.50
2011,04,29,04,30,1.50
2011,04,29,04,31,1.50
2011,04,29,04,32,1.50
2011,04,29,04,33,1.40
2011,04,29,04,34,1.40
2011,04,29,04,35,1.40
2011,04,29,04,36,1.40
2011,04,29,04,37,1.40
2011,04,29,04,38,1.40
2011,04,29,04,39,1.40
2011,04,29,04,40,1.50
2011,04,29,04,41,1.50
2011,04,29,04,42,1.60
2011,04,29,04,43,1.60
2011,04,29,04,44,1.60
2011,04,29,04,45,1.70
2011,04,29,04,46,1.70
2011,04,29,04,47,1.80
2011,04,29,04,48,1.80
2011,04,29,04,49,1.80
2011,04,29,04,50,1.80
2011,04,29,04,51,1.70
2011,04,29,04,52,1.70
2011,04,29,04,53,1.70
2011,04,29,04,54,1.70
2011,04,29,04,55,1.70
2011,04,29,04,56,1.60
2011,04,29,04,57,1.60
2011,04,29,04,58,1.60
2011,04,29,04,59,1.60
2011,04,29,05,00,1.60
2011,04,29,05,01,1.50
2011,04,29,05,02,1.50
2011,04,29,05,03,1.50
2011,04,29,05,04,1.50
2011,04,29,05,05,1.50
2011,04,29,05,06,1.50
2011,04,29,05,07,1.50
2011,04,29,05,08,1.40
2011,04,29,05,09,1.40
2011,04,29,05,10,1.30
2011,04,29,05,11,1.30
2011,04,29,05,12,1.30
2011,04,29,05,13,1.30
2011,04,29,05,14,1.20
2011,04,29,05,15,1.20
2011,04,29,05,16,1.20
2011,04,29,05,17,1.20
2011,04,29,05,18,1.20
2011,04,29,05,19,1.20
2011,04,29,05,20,1.10
2011,04,29,05,21,1.10
2011,04,29,05,22,1.00
2011,04,29,05,23,1.00
2011,04,29,05,24,0.90
2011,04,29,05,25,0.90
2011,04,29,05,26,0.90
2011,04,29,05,27,0.80
2011,04,29,05,28,0.80
2011,04,29,05,29,0.80
2011,04,29,05,30,0.80
2011,04,29,05,31,0.80
2011,04,29,05,32,0.80
2011,04,29,05,33,0.80
2011,04,29,05,34,0.80
2011,04,29,05,35,0.80
2011,04,29,05,36,0.80
2011,04,29,05,37,0.80
2011,04,29,05,38,0.80
2011,04,29,05,39,0.80
2011,04,29,05,40,0.80
2011,04,29,05,41,0.80
2011,04,29,05,42,0.80
2011,04,29,05,43,0.80
2011,04,29,05,44,0.80
2011,04,29,05,45,0.80
2011,04,29,05,46,0.80
2011,04,29,05,47,0.80
2011,04,29,05,48,0.80
2011,04,29,05,49,0.80
2011,04,29,05,50,0.80
2011,04,29,05,51,0.80
2011,04,29,05,52,0.80
2011,04,29,05,53,0.80
2011,04,29,05,54,0.80
2011,04,29,05,55,0.80
2011,04,29,05,56,0.80
2011,04,29,05,57,0.80
2011,04,29,05,58,0.80
2011,04,29,05,59,0.80
2011,04,29,06,00,0.80
2011,04,29,06,01,0.70
2011,04,29,06,02,0.70
2011,04,29,06,03,0.70
2011,04,29,06,04,0.70
2011,04,29,06,05,0.60
2011,04,29,06,06,0.60
2011,04,29,06,07,0.70
2011,04,29,06,08,0.70
2011,04,29,06,09,0.70
2011,04,29,06,10,0.70
2011,04,29,06,11,0.80
2011,04,29,06,12,0.80
2011,04,29,06,13,0.90
2011,04,29,06,14,1.00
2011,04,29,06,15,1.00
2011,04,29,06,16,1.10
2011,04,29,06,17,1.00
2011,04,29,06,18,1.00
2011,04,29,06,19,1.00
2011,04,29,06,20,0.90
2011,04,29,06,21,0.90
2011,04,29,06,22,0.80
2011,04,29,06,23,0.80
2011,04,29,06,24,0.80
2011,04,29,06,25,0.80
2011,04,29,06,26,0.80
2011,04,29,06,27,0.80
2011,04,29,06,28,0.80
2011,04,29,06,29,0.80
2011,04,29,06,30,0.80
2011,04,29,06,31,0.80
2011,04,29,06,32,0.90
2011,04,29,06,33,0.90
2011,04,29,06,34,1.00
2011,04,29,06,35,1.00
2011,04,29,06,36,1.10
2011,04,29,06,37,1.20
2011,04,29,06,38,1.30
2011,04,29,06,39,1.30
2011,04,29,06,40,1.40
2011,04,29,06,41,1.40
2011,04,29,06,42,1.50
2011,04,29,06,43,1.50
2011,04,29,06,44,1.50
2011,04,29,06,45,1.50
2011,04,29,06,46,1.60
2011,04,29,06,47,1.60
2011,04,29,06,48,1.60
2011,04,29,06,49,1.60
2011,04,29,06,50,1.70
2011,04,29,06,51,1.80
2011,04,29,06,52,1.80
2011,04,29,06,53,1.90
2011,04,29,06,54,1.90
2011,04,29,06,55,2.00
2011,04,29,06,56,2.00
2011,04,29,06,57,2.10
2011,04,29,06,58,2.10
2011,04,29,06,59,2.10
2011,04,29,07,00,2.10
2011,04,29,07,01,2.10
2011,04,29,07,02,2.00
2011,04,29,07,03,2.00
2011,04,29,07,04,2.00
2011,04,29,07,05,2.00
2011,04,29,07,06,2.00
2011,04,29,07,07,2.00
2011,04,29,07,08,2.00
2011,04,29,07,09,2.00
2011,04,29,07,10,2.10
2011,04,29,07,11,2.10
2011,04,29,07,12,2.20
2011,04,29,07,13,2.20
2011,04,29,07,14,2.20
2011,04,29,07,15,2.30
2011,04,29,07,16,2.40
2011,04,29,07,17,2.40
2011,04,29,07,18,2.50
2011,04,29,07,19,2.60
2011,04,29,07,20,2.70
2011,04,29,07,21,2.70
2011,04,29,07,22,2.70
2011,04,29,07,23,2.70
2011,04,29,07,24,2.80
2011,04,29,07,25,2.80
2011,04,29,07,26,2.90
2011,04,29,07,27,2.90
2011,04,29,07,28,3.00
2011,04,29,07,29,3.10
2011,04,29,07,30,3.20
2011,04,29,07,31,3.30
2011,04,29,07,32,3.30
2011,04,29,07,33,3.40
2011,04,29,07,34,3.50
2011,04,29,07,35,3.60
2011,04,29,07,36,3.70
2011,04,29,07,37,3.80
2011,04,29,07,38,3.90
2011,04,29,07,39,4.00
2011,04,29,07,40,4.00
2011,04,29,07,41,4.10
2011,04,29,07,42,4.20
2011,04,29,07,43,4.30
2011,04,29,07,44,4.30
2011,04,29,07,45,4.40
2011,04,29,07,46,4.40
2011,04,29,07,47,4.50
2011,04,29,07,48,4.50
2011,04,29,07,49,4.50
2011,04,29,07,50,4.50
2011,04,29,07,51,4.50
2011,04,29,07,52,4.60
2011,04,29,07,53,4.60
2011,04,29,07,54,4.60
2011,04,29,07,55,4.70
2011,04,29,07,56,4.70
2011,04,29,07,57,4.80
2011,04,29,07,58,4.80
2011,04,29,07,59,4.90
2011,04,29,08,00,5.00
2011,04,29,08,01,5.10
2011,04,29,08,02,5.10
2011,04,29,08,03,5.20
2011,04,29,08,04,5.30
2011,04,29,08,05,5.30
2011,04,29,08,06,5.40
2011,04,29,08,07,5.50
2011,04,29,08,08,5.50
2011,04,29,08,09,5.60
2011,04,29,08,10,5.70
2011,04,29,08,11,5.70
2011,04,29,08,12,5.70
2011,04,29,08,13,5.80
2011,04,29,08,14,5.90
2011,04,29,08,15,6.00
2011,04,29,08,16,6.00
2011,04,29,08,17,6.20
2011,04,29,08,18,6.30
2011,04,29,08,19,6.30
2011,04,29,08,20,6.40
2011,04,29,08,21,6.40
2011,04,29,08,22,6.40
2011,04,29,08,23,6.40
2011,04,29,08,24,6.40
2011,04,29,08,25,6.30
2011,04,29,08,26,6.20
2011,04,29,08,27,6.20
2011,04,29,08,28,6.20
2011,04,29,08,29,6.20
2011,04,29,08,30,6.20
2011,04,29,08,31,6.10
2011,04,29,08,32,6.10
2011,04,29,08,33,6.10
2011,04,29,08,34,6.10
2011,04,29,08,35,6.10
2011,04,29,08,36,6.10
2011,04,29,08,37,6.10
2011,04,29,08,38,6.20
2011,04,29,08,39,6.20
2011,04,29,08,40,6.20
2011,04,29,08,41,6.20
2011,04,29,08,42,6.30
2011,04,29,08,43,6.30
2011,04,29,08,44,6.30
2011,04,29,08,45,6.40
2011,04,29,08,46,6.40
2011,04,29,08,47,6.40
2011,04,29,08,48,6.40
2011,04,29,08,49,6.40
2011,04,29,08,50,6.40
2011,04,29,08,51,6.50
2011,04,29,08,52,6.60
2011,04,29,08,53,6.70
2011,04,29,08,54,6.70
2011,04,29,08,55,6.70
2011,04,29,08,56,6.70
2011,04,29,08,57,6.70
2011,04,29,08,58,6.70
2011,04,29,08,59,6.70
2011,04,29,09,00,6.70
2011,04,29,09,01,6.80
2011,04,29,09,02,6.80
2011,04,29,09,03,6.80
2011,04,29,09,04,6.80
2011,04,29,09,05,6.70
2011,04,29,09,06,6.70
2011,04,29,09,07,6.70
2011,04,29,09,08,6.60
2011,04,29,09,09,6.60
2011,04,29,09,10,6.60
2011,04,29,09,11,6.70
2011,04,29,09,12,6.70
2011,04,29,09,13,6.80
2011,04,29,09,14,6.90
2011,04,29,09,15,7.00
2011,04,29,09,16,7.00
2011,04,29,09,17,7.10
2011,04,29,09,18,7.20
2011,04,29,09,19,7.10
2011,04,29,09,20,7.10
2011,04,29,09,21,7.10
2011,04,29,09,22,7.10
2011,04,29,09,23,7.10
2011,04,29,09,24,7.10
2011,04,29,09,25,7.10
2011,04,29,09,26,7.20
2011,04,29,09,27,7.20
2011,04,29,09,28,7.20
2011,04,29,09,29,7.20
2011,04,29,09,30,7.10
2011,04,29,09,31,7.10
2011,04,29,09,32,7.00
2011,04,29,09,33,7.00
2011,04,29,09,34,7.00
2011,04,29,09,35,7.00
2011,04,29,09,36,7.10
2011,04,29,09,37,7.20
2011,04,29,09,38,7.10
2011,04,29,09,39,7.10
2011,04,29,09,40,7.10
2011,04,29,09,41,7.10
2011,04,29,09,42,7.10
2011,04,29,09,43,7.00
2011,04,29,09,44,7.10
2011,04,29,09,45,7.10
2011,04,29,09,46,7.10
2011,04,29,09,47,7.20
2011,04,29,09,48,7.30
2011,04,29,09,49,7.30
2011,04,29,09,50,7.30
2011,04,29,09,51,7.40
2011,04,29,09,52,7.40
2011,04,29,09,53,7.40
2011,04,29,09,54,7.40
2011,04,29,09,55,7.50
2011,04,29,09,56,7.60
2011,04,29,09,57,7.60
2011,04,29,09,58,7.60
2011,04,29,09,59,7.70
2011,04,29,10,00,7.60
2011,04,29,10,01,7.70
2011,04,29,10,02,7.70
2011,04,29,10,03,7.70
2011,04,29,10,04,7.70
2011,04,29,10,05,7.60
2011,04,29,10,06,7.80
2011,04,29,10,07,7.80
2011,04,29,10,08,7.80
2011,04,29,10,09,7.70
2011,04,29,10,10,7.70
2011,04,29,10,11,7.60
2011,04,29,10,12,7.60
2011,04,29,10,13,7.70
2011,04,29,10,14,7.70
2011,04,29,10,15,7.60
2011,04,29,10,16,7.60
2011,04,29,10,17,7.50
2011,04,29,10,18,7.50
2011,04,29,10,19,7.60
2011,04,29,10,20,7.70
2011,04,29,10,21,7.70
2011,04,29,10,22,7.60
2011,04,29,10,23,7.60
2011,04,29,10,24,7.60
2011,04,29,10,25,7.60
2011,04,29,10,26,7.70
2011,04,29,10,27,7.70
2011,04,29,10,28,7.80
2011,04,29,10,29,7.80
2011,04,29,10,30,7.80
2011,04,29,10,31,7.90
2011,04,29,10,32,7.80
2011,04,29,10,33,7.80
2011,04,29,10,34,7.90
2011,04,29,10,35,8.00
2011,04,29,10,36,8.00
2011,04,29,10,37,8.10
2011,04,29,10,38,8.10
2011,04,29,10,39,8.10
2011,04,29,10,40,8.20
2011,04,29,10,41,8.20
2011,04,29,10,42,8.10
2011,04,29,10,43,8.10
2011,04,29,10,44,8.20
2011,04,29,10,45,8.20
2011,04,29,10,46,8.20
2011,04,29,10,47,8.30
2011,04,29,10,48,8.30
2011,04,29,10,49,8.30
2011,04,29,10,50,8.30
2011,04,29,10,51,8.30
2011,04,29,10,52,8.40
2011,04,29,10,53,8.40
2011,04,29,10,54,8.40
2011,04,29,10,55,8.50
2011,04,29,10,56,8.50
2011,04,29,10,57,8.50
2011,04,29,10,58,8.40
2011,04,29,10,59,8.50
2011,04,29,11,00,8.50
2011,04,29,11,01,8.50
2011,04,29,11,02,8.40
2011,04,29,11,03,8.50
2011,04,29,11,04,8.50
2011,04,29,11,05,8.50
2011,04,29,11,06,8.60
2011,04,29,11,07,8.70
2011,04,29,11,08,8.70
2011,04,29,11,09,8.70
2011,04,29,11,10,8.80
2011,04,29,11,11,8.70
2011,04,29,11,12,8.70
2011,04,29,11,13,8.80
2011,04,29,11,14,8.80
2011,04,29,11,15,8.90
2011,04,29,11,16,8.90
2011,04,29,11,17,9.00
2011,04,29,11,18,9.00
2011,04,29,11,19,9.00
2011,04,29,11,20,9.00
2011,04,29,11,21,9.00
2011,04,29,11,22,9.10
2011,04,29,11,23,9.00
2011,04,29,11,24,9.00
2011,04,29,11,25,9.00
2011,04,29,11,26,9.00
2011,04,29,11,27,9.10
2011,04,29,11,28,9.10
2011,04,29,11,29,9.10
2011,04,29,11,30,9.20
2011,04,29,11,31,9.00
2011,04,29,11,32,9.00
2011,04,29,11,33,9.00
2011,04,29,11,34,8.90
2011,04,29,11,35,9.00
2011,04,29,11,36,9.00
2011,04,29,11,37,9.10
2011,04,29,11,38,9.20
2011,04,29,11,39,9.20
2011,04,29,11,40,9.20
2011,04,29,11,41,9.20
2011,04,29,11,42,9.20
2011,04,29,11,43,9.20
2011,04,29,11,44,9.30
2011,04,29,11,45,9.30
2011,04,29,11,46,9.40
2011,04,29,11,47,9.50
2011,04,29,11,48,9.60
2011,04,29,11,49,9.60
2011,04,29,11,50,9.70
2011,04,29,11,51,9.70
2011,04,29,11,52,9.70
2011,04,29,11,53,9.80
2011,04,29,11,54,9.80
2011,04,29,11,55,9.70
2011,04,29,11,56,9.70
2011,04,29,11,57,9.70
2011,04,29,11,58,9.70
2011,04,29,11,59,9.80
2011,04,29,12,00,9.80
2011,04,29,12,01,9.80
2011,04,29,12,02,9.80
2011,04,29,12,03,9.90
2011,04,29,12,04,9.90
2011,04,29,12,05,10.10
2011,04,29,12,06,10.10
2011,04,29,12,07,10.10
2011,04,29,12,08,10.10
2011,04,29,12,09,10.20
2011,04,29,12,10,10.30
2011,04,29,12,11,10.40
2011,04,29,12,12,10.40
2011,04,29,12,13,10.30
2011,04,29,12,14,10.20
2011,04,29,12,15,10.20
2011,04,29,12,16,10.20
2011,04,29,12,17,10.20
2011,04,29,12,18,10.20
2011,04,29,12,19,10.20
2011,04,29,12,20,10.20
2011,04,29,12,21,10.10
2011,04,29,12,22,10.00
2011,04,29,12,23,9.90
2011,04,29,12,24,10.00
2011,04,29,12,25,10.10
2011,04,29,12,26,10.20
2011,04,29,12,27,10.30
2011,04,29,12,28,10.20
2011,04,29,12,29,10.20
2011,04,29,12,30,10.10
2011,04,29,12,31,10.20
2011,04,29,12,32,10.10
2011,04,29,12,33,10.10
2011,04,29,12,34,10.10
2011,04,29,12,35,10.10
2011,04,29,12,36,10.10
2011,04,29,12,37,10.20
2011,04,29,12,38,10.20
2011,04,29,12,39,10.20
2011,04,29,12,40,10.00
2011,04,29,12,41,10.10
2011,04,29,12,42,10.10
2011,04,29,12,43,10.10
2011,04,29,12,44,10.20
2011,04,29,12,45,10.20
2011,04,29,12,46,10.20
2011,04,29,12,47,10.20
2011,04,29,12,48,10.30
2011,04,29,12,49,10.40
2011,04,29,12,50,10.40
2011,04,29,12,51,10.50
2011,04,29,12,52,10.60
2011,04,29,12,53,10.60
2011,04,29,12,54,10.60
2011,04,29,12,55,10.60
2011,04,29,12,56,10.40
2011,04,29,12,57,10.40
2011,04,29,12,58,10.40
2011,04,29,12,59,10.40
2011,04,29,13,00,10.40
2011,04,29,13,01,10.40
2011,04,29,13,02,10.30
2011,04,29,13,03,10.30
2011,04,29,13,04,10.40
2011,04,29,13,05,10.40
2011,04,29,13,06,10.60
2011,04,29,13,07,10.60
2011,04,29,13,08,10.60
2011,04,29,13,09,10.60
2011,04,29,13,10,10.60
2011,04,29,13,11,10.70
2011,04,29,13,12,10.80
2011,04,29,13,13,10.80
2011,04,29,13,14,10.80
2011,04,29,13,15,10.70
2011,04,29,13,16,10.70
2011,04,29,13,17,10.60
2011,04,29,13,18,10.50
2011,04,29,13,19,10.50
2011,04,29,13,20,10.70
2011,04,29,13,21,10.70
2011,04,29,13,22,10.70
2011,04,29,13,23,10.90
2011,04,29,13,24,10.90
2011,04,29,13,25,10.90
2011,04,29,13,26,11.00
2011,04,29,13,27,11.10
2011,04,29,13,28,11.00
2011,04,29,13,29,11.00
2011,04,29,13,30,11.00
2011,04,29,13,31,10.90
2011,04,29,13,32,10.90
2011,04,29,13,33,11.10
2011,04,29,13,34,11.10
2011,04,29,13,35,11.10
2011,04,29,13,36,11.20
2011,04,29,13,37,11.10
2011,04,29,13,38,11.10
2011,04,29,13,39,10.90
2011,04,29,13,40,11.00
2011,04,29,13,41,11.20
2011,04,29,13,42,11.30
2011,04,29,13,43,11.30
2011,04,29,13,44,11.30
2011,04,29,13,45,11.20
2011,04,29,13,46,11.30
2011,04,29,13,47,11.40
2011,04,29,13,48,11.40
2011,04,29,13,49,11.50
2011,04,29,13,50,11.60
2011,04,29,13,51,11.60
2011,04,29,13,52,11.60
2011,04,29,13,53,11.60
2011,04,29,13,54,11.60
2011,04,29,13,55,11.60
2011,04,29,13,56,11.60
2011,04,29,13,57,11.60
2011,04,29,13,58,11.60
2011,04,29,13,59,11.60
2011,04,29,14,00,11.50
2011,04,29,14,01,11.40
2011,04,29,14,02,11.50
2011,04,29,14,03,11.60
2011,04,29,14,04,11.60
2011,04,29,14,05,11.50
2011,04,29,14,06,11.40
2011,04,29,14,07,11.40
2011,04,29,14,08,11.30
2011,04,29,14,09,11.30
2011,04,29,14,10,11.20
2011,04,29,14,11,11.30
2011,04,29,14,12,11.40
2011,04,29,14,13,11.30
2011,04,29,14,14,11.40
2011,04,29,14,15,11.40
2011,04,29,14,16,11.40
2011,04,29,14,17,11.40
2011,04,29,14,18,11.50
2011,04,29,14,19,11.60
2011,04,29,14,20,11.60
2011,04,29,14,21,11.60
2011,04,29,14,22,11.50
2011,04,29,14,23,11.40
2011,04,29,14,24,11.40
2011,04,29,14,25,11.40
2011,04,29,14,26,11.50
2011,04,29,14,27,11.60
2011,04,29,14,28,11.50
2011,04,29,14,29,11.40
2011,04,29,14,30,11.40
2011,04,29,14,31,11.40
2011,04,29,14,32,11.40
2011,04,29,14,33,11.40
2011,04,29,14,34,11.50
2011,04,29,14,35,11.60
2011,04,29,14,36,11.60
2011,04,29,14,37,11.60
2011,04,29,14,38,11.70
2011,04,29,14,39,11.60
2011,04,29,14,40,11.70
2011,04,29,14,41,11.70
2011,04,29,14,42,11.70
2011,04,29,14,43,11.80
2011,04,29,14,44,11.90
2011,04,29,14,45,12.00
2011,04,29,14,46,12.00
2011,04,29,14,47,11.90
2011,04,29,14,48,11.80
2011,04,29,14,49,11.70
2011,04,29,14,50,11.70
2011,04,29,14,51,11.70
2011,04,29,14,52,11.70
2011,04,29,14,53,11.60
2011,04,29,14,54,11.70
2011,04,29,14,55,11.80
2011,04,29,14,56,11.80
2011,04,29,14,57,11.80
2011,04,29,14,58,11.90
2011,04,29,14,59,11.90
2011,04,29,15,00,12.00
2011,04,29,15,01,12.10
2011,04,29,15,02,12.20
2011,04,29,15,03,12.30
2011,04,29,15,04,12.30
2011,04,29,15,05,12.20
2011,04,29,15,06,12.20
2011,04,29,15,07,12.10
2011,04,29,15,08,12.10
2011,04,29,15,09,12.10
2011,04,29,15,10,12.10
2011,04,29,15,11,12.20
2011,04,29,15,12,12.30
2011,04,29,15,13,12.30
2011,04,29,15,14,12.30
2011,04,29,15,15,12.30
2011,04,29,15,16,12.20
2011,04,29,15,17,12.10
2011,04,29,15,18,12.00
2011,04,29,15,19,12.00
2011,04,29,15,20,12.10
2011,04,29,15,21,12.10
2011,04,29,15,22,12.00
2011,04,29,15,23,12.00
2011,04,29,15,24,11.90
2011,04,29,15,25,12.00
2011,04,29,15,26,12.00
2011,04,29,15,27,12.00
2011,04,29,15,28,12.10
2011,04,29,15,29,12.10
2011,04,29,15,30,12.00
2011,04,29,15,31,11.90
2011,04,29,15,32,11.80
2011,04,29,15,33,11.70
2011,04,29,15,34,11.80
2011,04,29,15,35,11.80
2011,04,29,15,36,11.80
2011,04,29,15,37,11.80
2011,04,29,15,38,11.80
2011,04,29,15,39,11.90
2011,04,29,15,40,11.90
2011,04,29,15,41,11.90
2011,04,29,15,42,11.90
2011,04,29,15,43,12.00
2011,04,29,15,44,12.00
2011,04,29,15,45,12.00
2011,04,29,15,46,12.00
2011,04,29,15,47,11.90
2011,04,29,15,48,11.90
2011,04,29,15,49,11.90
2011,04,29,15,50,12.00
2011,04,29,15,51,12.00
2011,04,29,15,52,12.00
2011,04,29,15,53,12.00
2011,04,29,15,54,12.00
2011,04,29,15,55,12.00
2011,04,29,15,56,11.90
2011,04,29,15,57,11.90
2011,04,29,15,58,11.90
2011,04,29,15,59,11.80
2011,04,29,16,00,11.80
2011,04,29,16,01,11.80
2011,04,29,16,02,11.80
2011,04,29,16,03,11.80
2011,04,29,16,04,11.80
2011,04,29,16,05,11.80
2011,04,29,16,06,11.80
2011,04,29,16,07,11.80
2011,04,29,16,08,11.80
2011,04,29,16,09,11.80
2011,04,29,16,10,11.80
2011,04,29,16,11,11.80
2011,04,29,16,12,11.80
2011,04,29,16,13,11.80
2011,04,29,16,14,11.80
2011,04,29,16,15,11.70
2011,04,29,16,16,11.70
2011,04,29,16,17,11.70
2011,04,29,16,18,11.80
2011,04,29,16,19,11.80
2011,04,29,16,20,11.70
2011,04,29,16,21,11.80
2011,04,29,16,22,11.70
2011,04,29,16,23,11.70
2011,04,29,16,24,11.80
2011,04,29,16,25,11.80
2011,04,29,16,26,11.80
2011,04,29,16,27,11.80
2011,04,29,16,28,11.80
2011,04,29,16,29,11.70
2011,04,29,16,30,11.70
2011,04,29,16,31,11.70
2011,04,29,16,32,11.80
2011,04,29,16,33,11.80
2011,04,29,16,34,11.80
2011,04,29,16,35,11.80
2011,04,29,16,36,11.80
2011,04,29,16,37,11.70
2011,04,29,16,38,11.70
2011,04,29,16,39,11.70
2011,04,29,16,40,11.80
2011,04,29,16,41,11.80
2011,04,29,16,42,11.70
2011,04,29,16,43,11.60
2011,04,29,16,44,11.70
2011,04,29,16,45,11.70
2011,04,29,16,46,11.80
2011,04,29,16,47,11.80
2011,04,29,16,48,11.80
2011,04,29,16,49,11.90
2011,04,29,16,50,11.90
2011,04,29,16,51,11.90
2011,04,29,16,52,11.90
2011,04,29,16,53,12.00
2011,04,29,16,54,12.10
2011,04,29,16,55,12.00
2011,04,29,16,56,11.90
2011,04,29,16,57,11.80
2011,04,29,16,58,11.70
2011,04,29,16,59,11.60
2011,04,29,17,00,11.60
2011,04,29,17,01,11.60
2011,04,29,17,02,11.50
2011,04,29,17,03,11.40
2011,04,29,17,04,11.40
2011,04,29,17,05,11.40
2011,04,29,17,06,11.40
2011,04,29,17,07,11.40
2011,04,29,17,08,11.40
2011,04,29,17,09,11.40
2011,04,29,17,10,11.40
2011,04,29,17,11,11.40
2011,04,29,17,12,11.40
2011,04,29,17,13,11.40
2011,04,29,17,14,11.40
2011,04,29,17,15,11.30
2011,04,29,17,16,11.20
2011,04,29,17,17,11.20
2011,04,29,17,18,11.20
2011,04,29,17,19,11.20
2011,04,29,17,20,11.20
2011,04,29,17,21,11.20
2011,04,29,17,22,11.10
2011,04,29,17,23,11.10
2011,04,29,17,24,11.10
2011,04,29,17,25,11.10
2011,04,29,17,26,11.00
2011,04,29,17,27,10.90
2011,04,29,17,28,10.90
2011,04,29,17,29,10.90
2011,04,29,17,30,10.80
2011,04,29,17,31,10.80
2011,04,29,17,32,10.80
2011,04,29,17,33,10.80
2011,04,29,17,34,10.70
2011,04,29,17,35,10.70
2011,04,29,17,36,10.70
2011,04,29,17,37,10.70
2011,04,29,17,38,10.80
2011,04,29,17,39,10.80
2011,04,29,17,40,10.90
2011,04,29,17,41,10.90
2011,04,29,17,42,10.90
2011,04,29,17,43,10.90
2011,04,29,17,44,11.00
2011,04,29,17,45,11.10
2011,04,29,17,46,11.10
2011,04,29,17,47,11.10
2011,04,29,17,48,11.10
2011,04,29,17,49,11.10
2011,04,29,17,50,11.10
2011,04,29,17,51,11.10